N5TUG Weather Reports


Display with metric or nautical units.
time (UTC)temp
F
wind
direction
speed
MPH
gust
MPH
rain 1hr
in
rain 24hr
in
rain mn
in
humidity
%
barometer
mb
20260510174604 61 10 2.0 14.0 0.01 0.01 0.01 78 1019.5
20260510173055 62 14 5.0 14.0 0.00 0.00 0.00 75 1020.1
20260510171620 62 5 4.0 16.0 0.00 0.00 0.00 76 1020.6
20260510170054 63 5 4.0 12.0 0.00 0.00 0.00 78 1020.3
20260510164600 63 10 4.0 12.0 0.00 0.00 0.00 79 1019.9
20260510163100 62 15 2.0 9.0 0.00 0.00 0.00 80 1019.1
20260510161552 62 0 1.0 9.0 0.00 0.00 0.00 80 1018.5
20260510160054 62 0 2.0 9.0 0.00 0.00 0.00 80 1018.5
20260510154558 62 13 3.0 12.0 0.00 0.00 0.00 80 1018.0
20260510153059 62 9 3.0 10.0 0.00 0.00 0.00 82 1017.6
20260510151555 62 11 3.0 9.0 0.00 0.00 0.00 85 1017.4
20260510150057 62 10 0.0 3.0 0.00 0.00 0.00 86 1017.3
20260510144601 62 0 0.0 6.0 0.00 0.00 0.00 85 1016.9
20260510143053 62 0 0.0 4.0 0.00 0.00 0.00 85 1016.8
20260510141552 62 9 2.0 10.0 0.00 0.00 0.00 85 1016.9
20260510140053 62 9 2.0 5.0 0.00 0.00 0.00 86 1017.1
20260510134552 62 11 2.0 5.0 0.00 0.00 0.00 86 1017.3
20260510133047 62 0 0.0 3.0 0.00 0.00 0.00 86 1017.0
20260510131553 62 0 0.0 0.0 0.00 0.00 0.00 85 1017.2
20260510130054 62 0 0.0 5.0 0.00 0.00 0.00 85 1017.2
20260510124548 62 0 0.0 0.0 0.00 0.00 0.00 85 1017.0
20260510123053 62 0 0.0 0.0 0.00 0.00 0.00 85 1016.0
20260510121555 62 0 0.0 0.0 0.00 0.00 0.00 85 1015.6
20260510120054 62 0 0.0 0.0 0.00 0.00 0.00 84 1015.3
20260510114558 62 0 0.0 0.0 0.00 0.00 0.00 84 1014.5
20260510113058 62 0 0.0 0.0 0.00 0.00 0.00 83 1014.2
20260510111551 63 0 0.0 0.0 0.00 0.00 0.00 82 1014.1
20260510110057 63 0 0.0 0.0 0.00 0.00 0.00 80 1014.0
20260510104555 63 0 0.0 0.0 0.00 0.00 0.00 80 1013.7
20260510103054 64 0 0.0 0.0 0.00 0.00 0.00 79 1013.5
20260510101602 64 0 0.0 0.0 0.00 0.00 0.00 77 1013.4
20260510100054 64 0 0.0 0.0 0.00 0.00 0.00 75 1013.5
20260510094555 65 0 0.0 0.0 0.00 0.01 0.00 75 1013.2
20260510093052 65 0 0.0 1.0 0.00 0.01 0.00 75 1013.0
20260510091551 65 0 0.0 0.0 0.00 0.01 0.00 75 1012.9
20260510090114 65 0 0.0 0.0 0.00 0.01 0.00 75 1012.8
20260510084607 65 13 1.0 5.0 0.00 0.01 0.00 74 1012.5
20260510083047 65 13 2.0 8.0 0.00 0.01 0.00 74 1011.7
20260510081547 65 13 2.0 10.0 0.00 0.01 0.00 75 1011.2
20260510080100 65 31 0.0 6.0 0.00 0.01 0.00 75 1010.2
20260510074553 65 29 3.0 10.0 0.00 0.01 0.00 76 1009.8
20260510073055 65 24 1.0 11.0 0.00 0.01 0.00 75 1009.8
20260510071553 65 26 4.0 24.0 0.00 0.01 0.00 77 1010.8
20260510070103 66 23 6.0 22.0 0.00 0.01 0.00 73 1010.8
20260510064549 68 23 5.0 19.0 0.00 0.01 0.00 67 1013.4
20260510063053 69 23 10.0 24.0 0.00 0.01 0.00 65 1014.5
20260510061552 69 27 4.0 8.0 0.00 0.01 0.00 66 1014.2
20260510060056 69 5 2.0 5.0 0.00 0.01 0.00 67 1014.0
20260510054550 69 12 1.0 4.0 0.00 0.01 0.00 66 1013.9
20260510053059 69 12 3.0 8.0 0.00 0.01 0.00 64 1014.1
20260510051607 69 13 2.0 10.0 0.00 0.01 0.00 66 1014.3
20260510050105 69 11 2.0 7.0 0.00 0.01 0.00 68 1013.8
20260510044553 69 19 0.0 1.0 0.00 0.01 0.01 61 1012.8
20260510043054 70 0 0.0 1.0 0.00 0.01 0.01 62 1012.6
20260510041553 70 0 0.0 0.0 0.00 0.01 0.01 61 1012.4
20260510040103 70 0 0.0 0.0 0.00 0.01 0.01 60 1012.3
20260510034553 70 0 0.0 1.0 0.00 0.01 0.01 60 1012.0
20260510033059 70 0 0.0 1.0 0.00 0.01 0.01 60 1012.0
20260510031550 70 0 0.0 0.0 0.00 0.01 0.01 59 1012.1
20260510030058 70 0 0.0 1.0 0.00 0.01 0.01 60 1012.0
20260510024551 70 0 0.0 0.0 0.00 0.01 0.01 61 1011.9
20260510023050 71 0 0.0 0.0 0.00 0.01 0.01 60 1011.3
20260510021642 72 0 0.0 0.0 0.00 0.01 0.01 58 1010.4
20260510020059 73 0 0.0 0.0 0.00 0.01 0.01 56 1010.2
20260510014558 74 0 0.0 0.0 0.00 0.12 0.01 55 1010.0
20260510013101 75 0 0.0 0.0 0.00 0.12 0.01 52 1009.7
20260510011552 76 0 0.0 0.0 0.00 0.12 0.01 50 1009.6
20260510010058 77 0 0.0 2.0 0.00 0.12 0.01 49 1009.5
20260510004552 77 0 0.0 3.0 0.00 0.42 0.01 47 1009.4
20260510003054 78 0 0.0 3.0 0.00 0.42 0.01 45 1009.3
20260510001546 78 23 1.0 4.0 0.00 0.42 0.01 45 1009.2
20260510000052 79 0 0.0 3.0 0.00 0.42 0.01 47 1009.3
20260509234551 79 0 0.0 3.0 0.00 0.46 0.01 47 1009.3
20260509233048 79 0 0.0 3.0 0.00 0.46 0.01 46 1009.4
20260509231551 80 0 0.0 3.0 0.00 0.46 0.01 45 1009.6
20260509230054 80 20 0.0 3.0 0.00 0.46 0.01 47 1009.6
20260509224550 80 21 1.0 3.0 0.00 0.46 0.01 47 1009.8
20260509223054 81 22 0.0 2.0 0.00 0.46 0.01 44 1009.8
20260509221552 81 20 1.0 4.0 0.00 0.46 0.01 44 1009.8
20260509220054 81 20 0.0 3.0 0.00 0.46 0.01 39 1009.8
20260509214549 81 0 0.0 4.0 0.00 0.46 0.01 38 1009.9
20260509213103 81 0 0.0 3.0 0.00 0.46 0.01 39 1009.9
20260509211601 81 20 0.0 2.0 0.00 0.46 0.01 41 1010.1
20260509210053 81 0 0.0 4.0 0.00 0.46 0.01 39 1010.4
20260509204551 81 0 0.0 2.0 0.00 0.46 0.01 41 1010.5
20260509203054 81 0 0.0 2.0 0.00 0.46 0.01 42 1010.6
20260509201550 81 20 1.0 3.0 0.00 0.46 0.01 41 1010.7
20260509200053 81 19 0.0 2.0 0.00 0.46 0.01 42 1010.7
20260509194559 81 19 0.0 3.0 0.00 0.46 0.01 42 1011.0
20260509193048 81 0 0.0 2.0 0.00 0.46 0.01 49 1011.2
20260509191604 80 22 0.0 2.0 0.00 0.46 0.01 44 1011.3
20260509190053 79 0 0.0 3.0 0.00 0.46 0.01 43 1011.3
20260509184601 79 0 0.0 3.0 0.00 0.46 0.01 45 1011.3
20260509183056 78 0 0.0 3.0 0.00 0.46 0.01 45 1011.4
20260509181559 77 28 0.0 5.0 0.00 0.46 0.01 55 1011.6
20260509180112 76 0 0.0 4.0 0.00 0.46 0.01 59 1011.8